This is the latest recevied weather packets stored in our database for station/object K7PMV-13. If no packets are shown the sender has not sent any weather packets the latest 10 day(s).
| Time | Temp. | Humidity | Pressure | Rain* | Wind** | Luminosity | Snow |
|---|---|---|---|---|---|---|---|
| 1777918084 | 25° C | 37% | 1008.7 hPa | 0 mm | - | 452 W/m² | - |
| 1777917767 | 24.44° C | 37% | 1008.6 hPa | 0 mm | - | 425 W/m² | - |
| 1777917091 | 24.44° C | 36% | 1008.3 hPa | 0 mm | - | 383 W/m² | - |
| 1777916769 | 25° C | 36% | 1008.2 hPa | 0 mm | - | 362 W/m² | - |
| 1777916454 | 24.44° C | 37% | 1008.2 hPa | 0 mm | - | 359 W/m² | - |
| 1777916140 | 24.44° C | 37% | 1008.2 hPa | 0 mm | - | 394 W/m² | - |
| 1777915820 | 24.44° C | 36% | 1008.2 hPa | 0 mm | - | 443 W/m² | - |
| 1777915502 | 24.44° C | 38% | 1008.1 hPa | 0 mm | - | 483 W/m² | - |
| 1777915188 | 24.44° C | 36% | 1008.2 hPa | 0 mm | - | 366 W/m² | - |
| 1777914865 | 24.44° C | 36% | 1008.4 hPa | 0 mm | - | 394 W/m² | - |
| 1777914551 | 24.44° C | 35% | 1008.5 hPa | 0 mm | - | 446 W/m² | - |
| 1777914236 | 24.44° C | 34% | 1008.6 hPa | 0 mm | - | 506 W/m² | - |
| 1777913899 | 24.44° C | 35% | 1008.6 hPa | 0 mm | - | 538 W/m² | - |
| 1777913572 | 24.44° C | 35% | 1008.7 hPa | 0 mm | - | 396 W/m² | - |
| 1777913239 | 24.44° C | 35% | 1008.8 hPa | 0 mm | - | 448 W/m² | - |
| 1777912609 | 24.44° C | 34% | 1008.5 hPa | 0 mm | - | 485 W/m² | - |
| 1777912289 | 24.44° C | 35% | 1008.3 hPa | 0 mm | - | 436 W/m² | - |
| 1777911974 | 23.89° C | 35% | 1008.2 hPa | 0 mm | - | 394 W/m² | - |
| 1777911654 | 23.89° C | 37% | 1008.3 hPa | 0 mm | - | 378 W/m² | - |
| 1777911337 | 23.89° C | 37% | 1008.5 hPa | 0 mm | - | 501 W/m² | - |
| 1777911021 | 23.89° C | 38% | 1008.3 hPa | 0 mm | - | 483 W/m² | - |
| 1777910694 | 23.89° C | 37% | 1008.2 hPa | 0 mm | - | 362 W/m² | - |
| 1777910375 | 23.33° C | 37% | 1008.2 hPa | 0 mm | - | 378 W/m² | - |
| 1777910052 | 23.33° C | 38% | 1008.2 hPa | 0 mm | - | 388 W/m² | - |
| 1777909720 | 23.33° C | 39% | 1008.3 hPa | 0 mm | - | 359 W/m² | - |
* Rain latest hour (hover to see other rain measurements)
** Current wind speed in m/s (hover to see current wind gust speed)